Location: Bruchweiler-B�renbach
(49.1135°N, 7.8012°E)
Time: 12:54:08
(UTC+00:00)

Daily predictions for brighter satellites

Satellite Brightness Start Highest point End
(mag) Time Altitude Azimuth Time Altitude Azimuth Time Altitude Azimuth
Gbstr 26 Del rocket 4.0 16:50:05 10° WNW 16:55:45 90° NNE 17:02:47 10° ESE
Cosmos 2239 Rocket 4.5 16:52:24 10° N 16:58:35 84° E 17:04:44 10° S
Meteor 1-16 Rocket 4.2 16:54:09 10° S 16:59:31 56° E 17:04:46 10° NNE
Envisat 3.1 16:55:36 10° SE 17:00:32 53° ENE 17:05:30 10° N
Unknown 4.1 16:57:04 10° W 17:01:08 54° N 17:05:14 10° ENE
Unknown 3.9 16:57:56 10° WNW 17:01:35 46° N 17:05:12 10° E
Cosmos 1726 2.5 16:58:14 10° SSE 17:01:41 41° E 17:05:09 10° NNE
Cosmos 1908 4.1 16:58:52 10° SSE 17:02:17 30° E 17:05:42 10° NNE
Cosmos 2278 Rocket 2.8 16:57:33 10° S 17:02:40 36° ESE 17:07:48 10° NE
Cosmos 1953 Rocket 3.6 16:58:22 10° N 17:02:46 85° W 17:07:06 10° S
Starlink (trailer) 4.1 16:58:45 10° W 17:02:49 54° N 17:06:54 10° ENE
Unknown 4.1 17:00:27 10° W 17:04:31 53° N 17:08:36 10° ENE
Okean-O 2.6 17:00:05 10° SSE 17:04:31 83° ENE 17:08:59 10° NNW
Falcon 9 debris 3.1 17:01:33 10° WNW 17:05:01 72° NNE 17:08:28 10° ESE
Unknown 3.3 17:01:51 10° WNW 17:05:22 63° NNE 17:08:51 10° E
BREEZE-M DEB (TANK) 4.4 17:01:25 10° SSW 17:05:48 22° SSE 17:08:08 10° ESE
Unknown 4.1 17:02:07 10° W 17:06:11 53° N 17:10:16 10° ENE
Meteor 1-11 4.4 17:02:13 10° N 17:07:55 57° ENE 17:13:38 10° SSE
Cosmos 1821 Rocket 4.3 17:02:20 10° NNW 17:08:28 76° W 17:14:37 10° S
Cosmos 1605 Rocket 4.1 17:03:10 10° N 17:09:12 51° ENE 17:15:08 10° SSE
FengYun 1-2 T 4.4 17:03:57 10° SE 17:09:24 54° ENE 17:14:50 10° N
Cosmos 1844 4.0 17:04:00 10° SW 17:09:44 75° WNW 17:15:33 10° NNE
Cosmos 1356 3.5 17:06:36 10° S 17:09:56 52° E 17:13:19 10° NNE
Unknown 4.1 17:06:52 10° W 17:10:54 51° N 17:14:55 10° ENE
Cosmos 1953 3.1 17:07:25 10° SSW 17:11:26 59° WNW 17:15:29 10° N
Cosmos 1934 Rocket 4.0 17:05:52 10° N 17:12:15 78° E 17:18:37 10° SSE
Unknown 4.1 17:08:47 10° W 17:12:51 51° N 17:16:48 11° ENE
Cosmos 1606 Rocket 4.0 17:10:04 10° SSW 17:14:25 68° W 17:18:47 10° N
Unknown 4.2 17:10:45 10° W 17:14:49 51° N 17:18:42 11° ENE
CSL-04 Rocket 3.9 17:10:31 10° SE 17:15:46 48° ENE 17:21:01 10° N
Unknown 4.2 17:12:06 10° W 17:16:11 51° N 17:20:02 11° ENE
USA 238 DEB 4.3 17:11:32 10° S 17:17:28 35° ESE 17:23:36 10° NE
USA 238 4.3 17:11:40 10° S 17:17:35 35° ESE 17:23:41 10° NE
Unknown 4.2 17:13:49 10° W 17:17:53 50° N 17:21:36 12° ENE
COBE Rocket 4.0 17:14:28 10° NNE 17:19:37 62° E 17:24:36 10° S
Unknown 4.2 17:15:37 10° W 17:19:40 50° N 17:23:18 12° ENE
Cosmos 2263 Rocket 4.5 17:15:52 10° W 17:19:48 19° NW 17:23:43 10° N
Meteor 2-10 3.9 17:16:04 10° S 17:21:03 66° E 17:26:04 10° NNE
Cosmos 1076 Rocket 4.5 17:18:38 10° N 17:22:23 27° ENE 17:26:05 10° SE
CZ-4 R/B 4.4 17:18:29 10° SSE 17:22:31 59° ENE 17:26:36 10° N
Unknown 4.2 17:18:57 10° W 17:22:59 49° N 17:26:30 13° ENE
Unknown 4.2 17:19:01 10° W 17:23:03 50° N 17:26:34 13° ENE
Cosmos 1727 Rocket 4.5 17:18:09 10° SSE 17:23:42 36° E 17:29:15 10° NNE
Unknown 4.2 17:20:29 10° W 17:24:32 49° N 17:27:58 14° ENE
Unknown 3.1 17:23:34 10° WNW 17:27:05 84° NNE 17:30:03 14° ESE
Unknown 4.2 17:23:45 10° W 17:27:48 49° N 17:31:06 15° ENE
Unknown 4.2 17:27:08 10° W 17:31:11 49° N 17:34:20 16° ENE
YAOGAN 6 2.5 17:27:59 10° SSE 17:31:36 65° ENE 17:35:12 10° N
Cosmos 292 Rocket 3.8 17:27:46 10° SSW 17:32:31 85° WNW 17:37:19 10° NNE
Unknown 4.2 17:28:52 10° W 17:32:54 49° N 17:35:59 16° ENE
Cosmos 2058 4.0 17:29:58 10° NNE 17:33:31 25° ENE 17:36:43 12° ESE
Cosmos 1833 Rocket 2.6 17:27:55 10° NNW 17:33:35 81° ENE 17:39:13 10° SSE
Unknown 4.2 17:30:32 10° W 17:34:35 48° N 17:37:34 17° ENE
Unknown 3.9 17:30:58 10° WNW 17:34:43 49° N 17:37:14 19° E
Cosmos 1812 Rocket 4.2 17:31:07 10° SSE 17:35:06 34° E 17:39:08 10° NNE
Unknown 4.2 17:32:13 10° W 17:36:16 48° N 17:39:11 17° ENE
Unknown 4.2 17:35:35 10° WNW 17:39:37 48° N 17:42:23 19° ENE
NOSS 3-2 (A) 3.9 17:35:19 10° S 17:40:35 38° ESE 17:46:23 10° NE
Unknown 4.2 17:37:18 10° WNW 17:41:20 48° N 17:44:02 19° ENE
Unknown 4.2 17:38:53 10° WNW 17:42:55 48° N 17:45:33 20° ENE
Ariane Rocket 3.4 17:38:32 10° SE 17:43:16 40° ENE 17:48:01 10° N
SKYMED 2 3.5 17:39:19 10° NNE 17:43:41 76° ESE 17:48:02 10° S
Cosmos 2151 4.4 17:41:04 10° NNE 17:44:07 18° ENE 17:44:07 18° ENE
Unknown 4.2 17:40:31 10° WNW 17:44:33 48° N 17:47:06 20° ENE
YAOGAN 1 2.5 17:41:29 10° SSE 17:45:48 77° ENE 17:50:09 10° N
Unknown 4.2 17:42:31 10° WNW 17:46:34 48° N 17:49:03 21° ENE
Unknown 4.2 17:43:42 10° WNW 17:47:44 48° N 17:50:10 21° ENE
NOSS 3-3 (A) 4.5 17:40:26 10° NW 17:47:49 78° NE 17:56:03 10° SE
NOSS 3-3 (C) 4.5 17:40:32 10° NW 17:47:55 78° NE 17:56:08 10° SE
Unknown 4.2 17:47:03 10° WNW 17:51:05 48° N 17:53:22 23° ENE
Unknown 4.2 17:48:43 10° WNW 17:52:45 48° N 17:54:58 24° ENE
Cosmos 1300 3.2 17:50:10 10° SSE 17:53:41 36° E 17:57:13 10° NNE
Cosmos 2100 Rocket 4.2 17:48:16 10° N 17:54:14 47° ENE 18:00:08 10° SSE
Cosmos 1939 Rocket 3.0 17:50:41 10° SE 17:54:33 49° ENE 17:58:30 10° N
Unknown 4.2 17:50:37 10° WNW 17:54:39 48° N 17:56:46 25° ENE
Shenzhou-11 Module 4.5 17:53:18 10° SW 17:54:44 13° SSW 17:56:11 10° SSE
HJ-1C 4.2 17:54:54 30° ENE 17:55:03 30° ENE 17:58:03 10° N
Unknown 4.2 17:52:04 10° WNW 17:56:06 48° N 17:58:10 25° ENE
Unknown 3.8 17:52:27 10° WNW 17:56:17 53° NNE 17:57:58 29° ENE
Abrixas rocket 2.2 17:53:45 10° WSW 17:56:47 59° SSE 17:57:37 40° ESE
Cosmos 1937 Rocket 4.2 17:52:51 10° N 17:57:27 31° NE 17:59:13 25° E
Unknown 4.2 17:53:41 10° WNW 17:57:43 48° N 17:59:43 26° ENE
CZ-2D R/B 3.2 17:53:57 10° SSE 17:57:44 58° ENE 18:01:34 10° N
Cosmos 990 Rocket 4.5 17:53:11 10° NNW 17:58:06 39° ENE 18:00:40 24° ESE
Unknown 4.2 17:57:05 10° WNW 18:01:07 48° N 18:02:58 28° ENE
Unknown 4.2 17:58:43 10° WNW 18:02:45 48° N 18:04:32 29° ENE
ADEOS Rocket 4.3 17:58:01 10° NNE 18:04:06 25° E 18:07:27 18° ESE
CSL-04 Debris 4.4 17:58:40 10° S 18:04:08 75° WSW 18:09:39 10° NNW
Unknown 4.2 18:00:25 10° WNW 18:04:26 48° N 18:06:09 29° ENE
Cosmos 2082 Rocket 2.2 17:58:44 10° NNW 18:04:29 86° WSW 18:10:10 10° SSE
Unknown 4.0 18:01:59 10° WNW 18:05:57 49° N 18:07:24 32° ENE
Unknown 4.2 18:02:03 10° WNW 18:06:06 48° N 18:07:43 30° ENE
BREEZE-M DEB (TANK) 4.2 18:01:35 10° WNW 18:06:06 67° SSW 18:18:49 12° SE
NOSS 3-2 (C) 3.9 18:01:04 10° S 18:06:20 38° ESE 18:09:34 23° ENE
Cosmos 1153 Rocket 4.4 18:03:07 10° N 18:09:18 89° E 18:15:27 10° S
ASTEX 1 4.3 18:04:33 10° N 18:09:22 51° WNW 18:14:10 10° SSW
Unknown 4.1 18:05:28 10° WNW 18:09:31 48° N 18:10:59 32° ENE
USA 116 3.2 18:06:37 10° NNE 18:09:50 87° WNW 18:13:19 10° SSW
Unknown 4.1 18:06:32 10° WNW 18:10:34 49° N 18:11:59 33° ENE
Unknown 4.1 18:07:17 10° WNW 18:11:19 49° N 18:12:41 34° ENE
Cosmos 2016 Rocket 4.3 18:05:37 10° N 18:11:34 42° ENE 18:15:25 21° SE
Unknown 4.1 18:08:35 10° WNW 18:12:34 49° N 18:13:50 35° NE
Unknown 4.1 18:08:59 10° WNW 18:13:02 49° N 18:14:20 35° ENE
Unknown 4.1 18:12:07 10° WNW 18:16:10 49° N 18:17:21 37° NE
Unknown 4.3 18:14:49 10° WNW 18:17:59 37° SW 18:19:12 27° S
Unknown 4.1 18:15:25 10° WNW 18:19:27 49° N 18:20:30 39° NE
Unknown 4.1 18:17:07 10° WNW 18:21:10 50° N 18:22:08 40° NE
Unknown 4.1 18:18:45 10° WNW 18:22:48 50° N 18:23:42 41° NE
Lacrosse 5 2.6 18:19:22 10° WNW 18:24:16 50° SW 18:27:31 20° SSE
Unknown 4.1 18:20:26 10° WNW 18:24:29 50° N 18:25:18 43° NE
Meteor 2-1 Rocket 4.2 18:19:18 10° S 18:24:39 56° E 18:30:08 10° NNE
CZ-4 R/B 3.3 18:21:51 10° SSW 18:25:39 33° W 18:29:31 10° NNW
SJ 16-02 1.7 18:21:37 10° N 18:25:45 43° ENE 18:25:45 43° ENE
SPOT 3 Rocket 4.0 18:26:38 39° ENE 18:27:04 39° ENE 18:31:54 10° N
FALCON 9 DEB 4.3 18:23:57 10° WNW 18:27:12 37° SW 18:27:59 32° S
In-Cosmos 22 Rocket 4.0 18:22:46 10° N 18:28:12 73° ENE 18:32:45 15° SSE
ATLAS CENTAUR R/B 3.3 18:26:52 10° NNW 18:30:07 19° NNE 18:30:12 19° NNE
Unknown 4.0 18:27:07 10° WNW 18:31:10 51° N 18:31:42 48° NE
COSMO-SKYMED 1 4.1 18:27:39 10° N 18:31:40 37° WNW 18:35:40 10° SW
Unknown 3.9 18:28:49 10° WNW 18:32:53 52° N 18:33:20 49° NNE
ATLAS 3B R/B 2.9 18:27:43 10° S 18:33:57 42° ESE 18:35:04 39° E
Cosmos 2084 Rocket 4.1 18:29:52 10° NW 18:34:13 54° SW 18:36:06 30° S
Unknown 3.9 18:30:24 10° WNW 18:34:28 52° N 18:34:51 50° NNE
ATLAS 5 CENTAUR R/B 4.0 18:32:22 10° WNW 18:35:48 19° NNW 18:39:03 12° NNE
Unknown 3.9 18:32:06 10° WNW 18:36:11 52° N 18:36:29 51° NNE
Unknown 3.9 18:33:46 10° WNW 18:37:50 53° N 18:38:04 52° NNE
Unknown 3.4 18:36:05 10° WNW 18:39:39 76° WSW 18:39:39 76° WSW
Unknown 3.9 18:37:05 10° WNW 18:41:10 53° N 18:41:16 53° NNE
CENTAUR R/B 2.7 18:35:56 10° SSW 18:41:37 48° ESE 18:42:36 44° E
Unknown 4.4 18:39:16 10° WNW 18:42:29 34° SW 18:42:37 34° SSW
Starlink (trailer) 3.9 18:38:45 10° WNW 18:42:50 54° N 18:42:51 54° NNE
H-2A R/B 2.4 18:42:58 47° ENE 18:42:58 47° ENE 18:48:06 10° N
Cosmos 1459 Rocket 4.0 18:37:43 10° N 18:43:59 86° W 18:50:18 10° S
Unknown 3.9 18:40:27 10° WNW 18:44:29 54° N 18:44:29 54° N
Cosmos 2061 Rocket 3.8 18:39:22 10° N 18:45:39 75° E 18:49:21 26° SSE
Unknown 4.0 18:42:07 10° WNW 18:46:05 55° N 18:46:05 55° N
Cosmos 2278 Rocket 3.2 18:41:13 10° SW 18:46:38 45° NW 18:52:07 10° NNE
SJ-11-01 4.1 18:46:45 67° SE 18:47:18 77° ENE 18:52:00 10° N
Cosmos 1898 Rocket 3.5 18:42:46 10° NNW 18:48:05 84° WSW 18:50:02 40° SSE
Cosmos 1766 Rocket 3.9 18:45:11 10° N 18:48:35 51° NNE 18:48:35 51° NNE
Cosmos 2297 3.6 18:44:36 10° SSW 18:50:18 77° ESE 18:53:21 29° NE
Unknown 4.0 18:46:47 10° WNW 18:50:31 54° N 18:50:31 54° N
Unknown 4.1 18:48:46 10° WNW 18:52:27 54° NNW 18:52:27 54° NNW
Unknown 4.1 18:50:45 10° WNW 18:54:23 53° NNW 18:54:23 53° NNW
Unknown 4.2 18:52:04 10° WNW 18:55:40 53° NNW 18:55:40 53° NNW
Unknown 4.2 18:53:46 10° WNW 18:57:15 52° NNW 18:57:15 52° NNW
Unknown 4.3 18:55:33 10° WNW 18:58:57 51° NNW 18:58:57 51° NNW
Okean 3 Rocket 3.7 18:55:14 10° NNW 18:59:46 72° W 19:00:14 65° SW
Unknown 4.4 18:58:52 10° WNW 19:02:08 49° NW 19:02:08 49° NW
Unknown 4.4 18:58:56 10° WNW 19:02:12 48° NW 19:02:12 48° NW
Resurs 01 Rocket 3.8 19:06:07 16° N 19:06:07 16° N 19:07:10 10° N
Unknown 4.4 19:00:24 10° WNW 19:03:37 47° NW 19:03:37 47° NW
ARGOS 3.3 19:05:13 60° NE 19:05:13 60° NE 19:10:01 10° N
USA 238 DEB 4.0 19:01:22 10° SW 19:08:04 65° NW 19:12:35 23° NE
USA 238 4.0 19:01:28 10° SW 19:08:09 65° NW 19:12:38 23° NE
Cosmos 1892 4.4 19:05:01 10° NNW 19:06:55 28° NNW 19:06:55 28° NNW
Cosmos 44 3.6 19:05:43 10° SW 19:09:46 60° SW 19:09:46 60° SW
Cosmos 1864 Rocket 4.4 19:11:35 10° N 19:17:46 85° W 19:18:59 61° S
Cosmos 2151 4.1 19:17:32 10° NNW 19:20:43 42° NW 19:20:43 42° NW
Cosmos 2123 Rocket 3.9 19:19:51 10° S 19:26:10 88° W 19:32:29 10° N
Cosmos 468 Rocket 4.4 19:23:44 10° SW 19:28:19 58° WSW 19:28:19 58° WSW
NOSS 3-2 (A) 4.0 19:25:22 10° WSW 19:31:12 55° NW 19:33:48 35° NNE
Cosmos 2233 Rocket 4.1 19:27:30 10° N 19:32:56 67° N 19:32:56 67° N
Cosmos 1725 Rocket 4.2 19:28:37 10° NNW 19:34:51 67° W 19:36:08 54° SSW
CZ-2C R/B 3.9 19:38:10 50° N 19:38:10 50° N 19:42:21 10° NNW
Cosmos 1937 Rocket 4.4 19:34:42 10° NW 19:39:25 43° W 19:39:25 43° W
Cosmos 2297 Rocket 4.5 19:46:45 10° N 19:48:12 13° NNE 19:48:12 13° NNE
ADEOS Rocket 3.5 19:42:41 10° NNE 19:50:25 79° WNW 19:57:32 10° SSW
NOSS 3-2 (C) 4.0 19:51:08 10° WSW 19:57:00 56° NW 19:57:05 55° NW
SJ 16-02 3.8 20:00:43 10° NW 20:02:45 19° WNW 20:02:45 19° WNW
ATLAS CENTAUR R/B 4.2 20:05:28 10° NW 20:06:23 16° NW 20:06:23 16° NW
ATLAS 5 CENTAUR R/B 4.4 20:18:44 10° NNW 20:20:34 16° NNW 20:20:34 16° NNW
H-2A R/B 3.9 20:23:36 28° WNW 20:23:36 28° WNW 20:27:15 10° NNW
ATLAS 3B R/B 3.6 20:17:58 10° WSW 20:22:24 40° W 20:22:24 40° W
CENTAUR R/B 3.8 20:26:13 10° WSW 20:29:52 34° W 20:29:52 34° W
